Moose, WY

7:41 AM MDT on July 29, 2016 (GMT -0600)
Jackson Hole

Weather History for KJAC - October, 2013

Change the Weather History Date:

Thursday, October 10, 2013

  Actual Average Record
Temperature  
Mean Temperature 42 °F -  
Max Temperature 51 °F 56 °F 77 °F (1996)
Min Temperature 32 °F 24 °F 11 °F (1985)
Degree Days  
Heating Degree Days 24    
Moisture  
Dew Point 33 °F    
Average Humidity 81    
Maximum Humidity 93    
Minimum Humidity 50    
Precipitation  
Precipitation 0.00 in - - ()
Sea Level Pressure  
Sea Level Pressure 29.82 in    
Wind  
Wind Speed 8 mph (North)    
Max Wind Speed 14 mph    
Max Gust Speed -    
Visibility 10 miles    
Events      
Averages and records for this station are not official NWS values.
T = Trace of Precipitation, MM = Missing Value Source: NWS Daily Summary

Daily Weather History Graph

Daily Weather History Graph

Search for Another Location

Airport or City:

Trip Planner

Search our weather history database for the weather conditions in past years. The results will help you decide how hot, cold, wet, or windy it might be!

Date:

Astronomy

Oct. 10, 2013 Rise Set
Actual Time 7:31 AM MDT 6:47 PM MDT
Civil Twilight 7:02 AM MDT 7:16 PM MDT
Nautical Twilight 6:29 AM MDT 7:49 PM MDT
Astronomical Twilight 5:56 AM MDT 8:22 PM MDT
Moon 1:33 PM MDT (10/10) 11:22 PM MDT (10/10)
Length of Visible Light 12h 13m
Length of Day
11h 16m
Waxing Crescent, 36% of the Moon is Illuminated
Oct 10
Waxing Crescent
Oct 11
First Quarter
Oct 18
Full
Oct 26
Last Quarter
Nov 3
New

Hourly Weather History & Observations

Time (MDT) Temp. Windchill Dew Point Humidity Pressure Visibility Wind Dir Wind Speed Gust Speed Precip Events Conditions
12:15 AM 39.2 °F 33.6 °F 33.8 °F 81% 29.91 in 10.0 mi North 8.1 mph - N/A   Overcast
12:35 AM 39.2 °F 33.0 °F 33.8 °F 81% 29.90 in 10.0 mi North 9.2 mph - N/A   Mostly Cloudy
12:55 AM 37.4 °F 30.8 °F 33.8 °F 87% 29.90 in 10.0 mi North 9.2 mph - N/A   Mostly Cloudy
1:15 AM 37.4 °F 34.9 °F 33.8 °F 87% 29.89 in 10.0 mi North 3.5 mph - N/A   Scattered Clouds
1:35 AM 37.4 °F 32.8 °F 32.0 °F 81% 29.88 in 10.0 mi NNE 5.8 mph - N/A   Clear
1:55 AM 35.6 °F 28.0 °F 32.0 °F 87% 29.88 in 10.0 mi North 10.4 mph - N/A   Clear
2:15 AM 35.6 °F 26.6 °F 32.0 °F 87% 29.87 in 10.0 mi North 13.8 mph - N/A   Clear
2:35 AM 33.8 °F 26.4 °F 32.0 °F 93% 29.87 in 10.0 mi North 9.2 mph - N/A   Clear
2:55 AM 33.8 °F 25.3 °F 32.0 °F 93% 29.87 in 10.0 mi North 11.5 mph - N/A   Clear
3:15 AM 33.8 °F 25.8 °F 30.2 °F 87% 29.87 in 10.0 mi North 10.4 mph - N/A   Scattered Clouds
3:35 AM 33.8 °F 25.8 °F 30.2 °F 87% 29.86 in 10.0 mi North 10.4 mph - N/A   Scattered Clouds
3:55 AM 33.8 °F 28.6 °F 30.2 °F 87% 29.86 in 10.0 mi NNE 5.8 mph - N/A   Partly Cloudy
4:15 AM 35.6 °F 27.1 °F 32.0 °F 87% 29.85 in 10.0 mi North 12.7 mph - N/A   Scattered Clouds
4:35 AM 33.8 °F 25.8 °F 32.0 °F 93% 29.85 in 10.0 mi North 10.4 mph - N/A   Scattered Clouds
4:55 AM 33.8 °F 24.3 °F 30.2 °F 87% 29.83 in 10.0 mi North 13.8 mph - N/A   Partly Cloudy
5:15 AM 35.6 °F 30.7 °F 30.2 °F 81% 29.83 in 10.0 mi ENE 5.8 mph - N/A   Clear
5:35 AM 33.8 °F 28.6 °F 30.2 °F 87% 29.83 in 10.0 mi WNW 5.8 mph - N/A   Clear
5:55 AM 33.8 °F 26.4 °F 30.2 °F 87% 29.83 in 10.0 mi North 9.2 mph - N/A   Clear
6:15 AM 33.8 °F 25.8 °F 30.2 °F 87% 29.82 in 10.0 mi North 10.4 mph - N/A   Partly Cloudy
6:35 AM 32.0 °F 28.7 °F 30.2 °F 93% 29.83 in 10.0 mi North 3.5 mph - N/A   Partly Cloudy
6:53 AM 32.0 °F 27.5 °F 30.2 °F 93% 29.82 in 10.0 mi ENE 4.6 mph - N/A   Clear
7:57 AM 33.8 °F 30.8 °F 30.2 °F 87% 29.81 in 10.0 mi West 3.5 mph - N/A   Mostly Cloudy
8:57 AM 33.8 °F - 30.2 °F 87% 29.81 in 10.0 mi Calm Calm - N/A   Mostly Cloudy
9:58 AM 37.4 °F - 32.0 °F 81% 29.80 in 10.0 mi Calm Calm - N/A   Partly Cloudy
10:54 AM 41.0 °F 39.0 °F 33.8 °F 76% 29.79 in 10.0 mi South 3.5 mph - N/A   Clear
11:53 AM 42.8 °F 41.1 °F 33.8 °F 70% 29.77 in 10.0 mi SSE 3.5 mph - N/A   Clear
2:54 PM 50.0 °F - 35.6 °F 58% 29.70 in 10.0 mi Calm Calm - N/A   Scattered Clouds
3:51 PM 51.8 °F - 35.6 °F 54% 29.70 in 10.0 mi Calm Calm - N/A   Overcast
4:55 PM 51.8 °F - 33.8 °F 50% 29.69 in 10.0 mi Calm Calm - N/A   Scattered Clouds
5:51 PM 50.0 °F - 35.6 °F 58% 29.70 in 10.0 mi WSW 8.1 mph - N/A   Scattered Clouds
6:51 PM 48.2 °F - 33.8 °F 58% 29.71 in 10.0 mi West 11.5 mph - N/A   Overcast
7:51 PM 46.4 °F 41.1 °F 35.6 °F 66% 29.75 in 10.0 mi NW 11.5 mph - N/A   Overcast
8:55 PM 44.6 °F 39.7 °F 37.4 °F 76% 29.77 in 10.0 mi NNE 9.2 mph - N/A   Overcast
9:15 PM 44.6 °F 39.2 °F 37.4 °F 76% 29.78 in 10.0 mi NNE 10.4 mph - N/A   Overcast
9:35 PM 42.8 °F 38.0 °F 37.4 °F 81% 29.79 in 10.0 mi NE 8.1 mph - N/A   Overcast
9:55 PM 42.8 °F 36.6 °F 37.4 °F 81% 29.80 in 10.0 mi North 11.5 mph - N/A   Overcast
10:15 PM 41.0 °F 36.4 °F 37.4 °F 87% 29.80 in 10.0 mi NNW 6.9 mph - N/A   Overcast
10:35 PM 41.0 °F 36.4 °F 37.4 °F 87% 29.80 in 10.0 mi North 6.9 mph - N/A   Overcast
11:15 PM 41.0 °F 37.1 °F 35.6 °F 81% 29.80 in 10.0 mi SW 5.8 mph - N/A   Overcast
11:35 PM 39.2 °F 37.0 °F 35.6 °F 87% 29.80 in 10.0 mi WSW 3.5 mph - N/A   Mostly Cloudy
11:55 PM 39.2 °F 37.0 °F 35.6 °F 87% 29.80 in 10.0 mi WSW 3.5 mph - N/A   Overcast